Location: Noverd
(38.0910°N, 121.6877°W)
Time: 14:38:12
(UTC+00:00)

Envisat - Pass Details

Date: 20 April 2026
Orbit: 761 x 762 km, 98.4° (Epoch: 15 May)

Event Time Altitude Azimuth Distance (km) Brightness Sun altitude
Rises 09:52:00 0° 26° (NNE) 3,229 7.3 -34.4°
Reaches altitude 10° 09:54:39 10° 38° (NE) 2,299 6.3 -34.2°
Enters shadow 09:58:16 26° 83° (E) 1,455 4.7 -33.8°
